Regional Weather Roundup
Issued by NWS

Home | Current Version | Previous Version | Graphics & Text | Print | Product List | Glossary On
Versions: 1 2 3 4 5 6 7 8 9 10 11 12 13 14 15 16 17 18 19 20 21 22 23 24 25 26 27 28 29 30 31 32 33 34 35 36 37 38 39 40 41 42 43 44 45 46 47 48 49 50
000
ASUS43 KDMX 200307
RWRIA

WEATHER ROUNDUP FOR IOWA
NATIONAL WEATHER SERVICE DES MOINES IA
1000 PM CDT TUE AUG 19 2014

NOTE: "FAIR" INDICATES FEW OR NO CLOUDS BELOW 12,000 FEET WITH NO
SIGNIFICANT WEATHER AND/OR OBSTRUCTIONS TO VISIBILITY.

* - THESE STATIONS ARE NOT NWS STATIONS...THUS NOT UNDER NWS
QUALITY CONTROL.  THEY ALSO DO NOT REPORT WEATHER SUCH
AS PRECIPITATION OR FOG.

IAZ001>003-012>014-020>022-031>034-043>046-200400-
   NORTHWEST IOWA

CITY           SKY/WX    TMP DP  RH WIND       PRES   REMARKS
CARROLL *      CLOUDY    66  64  94 CALM      29.82S
CHEROKEE *     CLEAR     66  64  94 CALM      29.83R
DENISON *      CLEAR     70  68  94 CALM      29.81R
LE MARS *      PTCLDY    70  66  88 CALM      29.83R
ORANGE CITY *  CLEAR     73  63  68 CALM      29.84R
SHELDON *      CLEAR     64  64 100 CALM      29.83R
SIOUX CITY     PTCLDY    74  66  76 E5        29.80R
SPENCER        CLEAR     67  64  90 SW6       29.83R
STORM LAKE *   CLEAR     68  66  94 SW3       29.84R
$$

IAZ055>058-069>071-079>083-090>094-200400-
   SOUTHWEST IOWA

CITY           SKY/WX    TMP DP  RH WIND       PRES   REMARKS
ATLANTIC *     CLEAR     72  68  88 N5        29.81S
AUDUBON *      CLEAR     70  66  88 CALM      29.84R
CLARINDA *     CLEAR     72  72 100 CALM      29.82S
COUNCIL BLFS * CLEAR     75  68  78 SE5       29.80R
CRESTON *      CLEAR     72  66  83 NE7       29.83S
HARLAN  *      CLEAR     70  68  94 CALM      29.86R
LAMONI         CLEAR     75  69  81 E5        29.83R
RED OAK *      PTCLDY    72  68  88 CALM      29.81R
SHENANDOAH *   CLEAR     73  72  94 CALM      29.81R
$$

IAZ047>049-059>061-072>074-084-200400-
   CENTRAL IOWA

CITY           SKY/WX    TMP DP  RH WIND       PRES   REMARKS
AMES           CLEAR     67  65  93 CALM      29.82R
ANKENY *       CLEAR     70  66  88 CALM      29.81S
CHARITON *     CLEAR     73  68  83 CALM      29.83R
DES MOINES     CLEAR     78  65  63 CALM      29.81R HX  80
GRINNELL*      CLEAR     68  64  88 CALM      29.84R
KNOXVILLE *    CLEAR     75  66  73 CALM      29.81R
MARSHALLTOWN   CLEAR     69  65  86 SW5       29.82R
PELLA *        CLEAR     70  66  88 CALM      29.83S
PERRY *          N/A     68  66  94 S3        29.82S
$$

IAZ004>006-015-016-023>025-035-036-200400-
   NORTH CENTRAL IOWA

CITY           SKY/WX    TMP DP  RH WIND       PRES   REMARKS
ALGONA *       CLEAR     70  66  88 SW6       29.82R
CLARION *      CLEAR     68  66  94 S5        29.82R
ESTHERVILLE    CLEAR     67  64  90 CALM      29.82R
FORT DODGE *   CLEAR     66  63  88 CALM      29.83S
MASON CITY     PTCLDY    67  65  93 SW5       29.83R
FOREST CITY *  MOCLDY    70  68  94 CALM      29.82R
IOWA FALLS *     N/A     68  64  88 SW5       29.84R
$$

IAZ007>011-017>019-026>030-037>042-050>054-066-200400-
   NORTHEAST IOWA

CITY           SKY/WX    TMP DP  RH WIND       PRES   REMARKS
CEDAR RAPIDS   CLEAR     70  66  87 W5        29.81R
CHARLES CITY * PTCLDY    68  66  94 CALM      29.82R
CLINTON *      CLEAR     66  63  88 W6        29.82R
DECORAH *      PTCLDY    70  64  83 CALM      29.80R
DUBUQUE        CLEAR     67  63  87 W5        29.81R
MONTICELLO *   CLEAR     66  64  94 CALM      29.80S
OELWEIN *      CLEAR     68  64  88 CALM      29.82R
WATERLOO       PTCLDY    71  66  84 SW5       29.80R
$$

IAZ064-065-067-068-078-200400-
   EAST CENTRAL IOWA

CITY           SKY/WX    TMP DP  RH WIND       PRES   REMARKS
DAVENPORT      CLEAR     68  64  87 W6        29.81R
IOWA CITY      CLEAR     69  65  86 W5        29.82R
MT. PLEASANT * CLEAR     70  64  83 CALM      29.82R
MUSCATINE *    CLEAR     72  66  83 CALM      29.81R
QUAD CITIES    CLEAR     71  64  78 W3        29.80R
$$

IAZ062-063-075>077-085>089-095>099-200400-
   SOUTHEAST IOWA

CITY           SKY/WX    TMP DP  RH WIND       PRES   REMARKS
BURLINGTON     CLEAR     70  66  87 CALM      29.82R
FAIRFIELD *    CLEAR     68  64  88 CALM      29.83R
FORT MADISON * CLEAR     72  70  94 CALM      29.83R
KEOKUK *       PTCLDY    72  72 100 CALM      29.82R
OSKALOOSA *      N/A     70  66  88 W3        29.83R
CENTERVILLE *  CLEAR     68  68 100 CALM      29.85R
OTTUMWA        CLEAR     68  66  93 CALM      29.82R
WASHINGTON *   CLEAR     68  66  94 CALM      29.82R
$$

ABBREVIATIONS USED IN REMARKS
   TC - TEMPERATURES IN CELSIUS
  WCI - WIND CHILL INDEX
   HX - HEAT INDEX
  VSB - VISIBILITY
$$



USA.gov is the U.S. government's official web portal to all federal, state and local government web resources and services.